DW1188 Weather Reports


Display with metric or nautical units.
time (UTC)temp
F
wind
direction
speed
MPH
gust
MPH
rain 1hr
in
rain 24hr
in
rain mn
in
humidity
%
barometer
mb
20260905093014 48 110 0.0 0.0 0.00 0.03 0.00 89 1019.1
20260905091753 48 111 0.0 0.0 0.00 0.03 0.00 88 1019.2
20260905090546 49 110 0.0 0.0 0.00 0.03 0.00 87 1019.1
20260905085409 49 71 0.0 0.0 0.00 0.03 0.00 88 1019.0
20260905084237 50 91 0.0 0.0 0.00 0.03 0.00 86 1019.1
20260905083001 50 84 0.0 0.0 0.00 0.03 0.00 86 1018.9
20260905081757 49 69 0.0 0.0 0.00 0.03 0.00 86 1018.7
20260905080538 49 36 0.0 0.0 0.00 0.03 0.00 86 1018.6
20260905075305 50 36 0.0 0.0 0.00 0.03 0.00 86 1018.5
20260905074111 50 36 0.0 0.0 0.00 0.03 0.00 85 1018.4
20260905071526 50 36 0.0 0.0 0.00 0.03 0.00 85 1018.1
20260905065010 50 36 0.0 0.0 0.00 0.04 0.04 83 1018.0
20260905063747 51 36 0.0 0.0 0.00 0.05 0.04 83 1018.0
20260905062551 51 36 0.0 0.0 0.00 0.08 0.04 82 1018.1
20260905061329 51 36 0.0 0.0 0.00 0.09 0.04 82 1018.1
20260905060115 51 36 0.0 0.0 0.00 0.11 0.04 81 1018.0
20260905054919 52 36 0.0 0.0 0.00 0.12 0.04 81 1018.1
20260905053640 52 36 0.0 0.0 0.00 0.12 0.04 80 1018.2
20260905051125 53 36 0.0 0.0 0.00 0.13 0.04 78 1018.2
20260905045932 53 36 0.0 0.0 0.00 0.13 0.04 77 1018.1
20260905043334 54 38 0.0 0.0 0.00 0.13 0.04 75 1018.1
20260905042146 55 46 0.0 0.0 0.00 0.13 0.04 74 1018.1
20260905040913 55 15 0.0 0.0 0.00 0.13 0.04 73 1018.0
20260905035739 55 29 0.0 0.0 0.00 0.13 0.04 73 1018.0
20260905034603 55 34 0.0 0.0 0.00 0.13 0.04 72 1017.9
20260905033331 55 35 0.0 0.0 0.00 0.13 0.04 71 1017.9
20260905032131 56 21 0.0 0.0 0.00 0.13 0.04 69 1017.9
20260905030946 57 21 0.0 0.0 0.00 0.13 0.04 67 1017.9
20260905025809 57 17 0.0 0.0 0.00 0.13 0.04 65 1017.8
20260905024624 58 30 0.0 0.0 0.00 0.13 0.04 63 1017.7
20260905023358 58 23 0.0 0.0 0.00 0.13 0.04 62 1017.6
20260905022128 59 5 0.0 0.0 0.00 0.13 0.04 61 1017.5
20260905015644 60 0 0.0 4.0 0.00 0.13 0.04 62 1017.6
20260905014430 61 11 0.0 2.0 0.00 0.13 0.04 60 1017.5
20260905013252 61 0 0.0 0.0 0.00 0.13 0.04 60 1017.4
20260905012041 60 346 0.0 0.0 0.00 0.13 0.04 61 1017.1
20260905010839 61 34 0.0 1.0 0.00 0.13 0.04 59 1016.9
20260905005609 62 337 0.0 0.0 0.00 0.13 0.04 57 1017.1
20260905004420 62 49 0.0 0.0 0.00 0.13 0.04 54 1017.1
20260905003143 62 11 0.0 0.0 0.00 0.13 0.04 54 1017.1
20260905001953 62 82 0.0 1.0 0.00 0.13 0.04 55 1017.1
20260905000741 62 321 0.0 1.0 0.00 0.13 0.04 56 1017.2
20260904235526 62 316 0.0 0.0 0.00 0.13 0.04 57 1017.1
20260904234339 61 0 0.0 0.0 0.00 0.13 0.04 60 1017.2
20260904231824 62 199 0.0 0.0 0.00 0.13 0.04 59 1017.1
20260904230545 63 19 0.0 3.0 0.00 0.13 0.04 57 1017.1
20260904225341 62 75 0.0 1.0 0.00 0.13 0.04 57 1017.1
20260904224154 62 78 0.0 0.0 0.00 0.13 0.04 59 1017.1
20260904222926 61 55 0.0 0.0 0.00 0.13 0.04 62 1017.1
20260904215054 59 119 0.0 0.0 0.00 0.13 0.04 65 1017.6
20260904212510 59 155 0.0 0.0 0.00 0.13 0.04 71 1017.5
20260904205909 57 195 0.0 0.0 0.00 0.13 0.04 74 1017.6
20260904204633 57 232 0.0 0.0 0.00 0.13 0.04 75 1017.6
20260904203405 56 160 0.0 0.0 0.00 0.13 0.04 74 1017.4
20260904202219 56 207 0.0 0.0 0.00 0.13 0.04 74 1017.4
20260904201035 56 187 0.0 2.0 0.00 0.13 0.04 75 1017.3
20260904194526 56 254 0.0 0.0 0.00 0.13 0.04 75 1017.2
20260904190624 53 242 0.0 0.0 0.00 0.13 0.04 85 1017.3
20260904185354 54 242 0.0 0.0 0.00 0.12 0.03 81 1017.2
20260904184219 54 242 0.0 0.0 0.00 0.12 0.03 81 1017.1
20260904182955 54 281 0.0 0.0 0.00 0.12 0.03 82 1017.0
20260904181747 54 254 0.0 0.0 0.00 0.11 0.02 81 1016.9
20260904180556 54 261 0.0 0.0 0.00 0.11 0.02 80 1016.8
20260904175355 54 195 0.0 0.0 0.00 0.11 0.02 80 1016.7
20260904174154 53 188 0.0 0.0 0.00 0.11 0.02 81 1016.6
20260904173005 53 188 0.0 0.0 0.00 0.11 0.02 83 1016.5
20260904171804 53 181 0.0 0.0 0.00 0.11 0.02 85 1016.5
20260904170632 52 167 0.0 0.0 0.00 0.11 0.02 87 1016.4
20260904165449 52 167 0.0 0.0 0.00 0.11 0.02 87 1016.3
20260904164305 52 167 0.0 0.0 0.00 0.11 0.02 90 1016.2
20260904163057 51 167 0.0 0.0 0.00 0.11 0.02 89 1016.1
20260904161828 51 221 0.0 0.0 0.00 0.11 0.02 90 1016.0
20260904160616 51 221 0.0 0.0 0.00 0.11 0.02 91 1015.9
20260904155350 51 221 0.0 0.0 0.00 0.11 0.02 92 1015.7
20260904154122 50 222 0.0 0.0 0.00 0.11 0.02 92 1015.7
20260904152921 50 150 0.0 0.0 0.00 0.11 0.02 92 1015.6
20260904151641 50 157 0.0 0.0 0.00 0.11 0.02 92 1015.6
20260904150430 50 142 0.0 0.0 0.00 0.11 0.02 92 1015.4
20260904145239 50 136 0.0 0.0 0.00 0.11 0.02 92 1015.2
20260904142801 50 138 0.0 0.0 0.00 0.11 0.02 92 1014.8
20260904141619 50 126 0.0 0.0 0.00 0.11 0.02 92 1014.7
20260904140412 50 129 0.0 0.0 0.00 0.11 0.02 92 1014.6
20260904135227 50 148 0.0 0.0 0.00 0.11 0.02 92 1014.4
20260904134048 50 150 0.0 0.0 0.00 0.11 0.02 92 1014.3
20260904132835 50 55 0.0 0.0 0.00 0.11 0.02 92 1014.3
20260904131633 50 28 0.0 0.0 0.00 0.11 0.02 92 1013.9
20260904130452 51 28 0.0 0.0 0.00 0.13 0.02 92 1013.8
20260904125312 51 28 0.0 0.0 0.00 0.12 0.01 92 1013.8
20260904122810 51 26 0.0 0.0 0.00 0.12 0.01 91 1013.3
20260904121614 51 26 0.0 0.0 0.00 0.14 0.01 91 1013.3
20260904113714 51 26 0.0 0.0 0.00 0.15 0.01 91 1012.8
20260904105825 51 26 0.0 0.0 0.00 0.17 0.01 91 1012.3
20260904104650 51 306 0.0 0.0 0.00 0.17 0.01 91 1012.2
20260904103414 51 290 0.0 0.0 0.00 0.17 0.01 91 1012.3
20260904102204 51 290 0.0 0.0 0.00 0.17 0.01 91 1012.5
20260904101018 51 290 0.0 0.0 0.00 0.17 0.01 90 1012.3
20260904095813 51 290 0.0 0.0 0.00 0.17 0.01 90 1012.2